This is the latest recevied weather packets stored in our database for station/object G7GQA-4. If no packets are shown the sender has not sent any weather packets the latest 1 day(s).
| Time | Temp. | Humidity | Pressure | Rain* | Wind** | Luminosity | Snow |
|---|---|---|---|---|---|---|---|
| 1836274696 | 15° C | 91% | - | 0 mm | 0 m/s | 0 W/m² | - |
| 1836274545 | 15° C | 91% | - | 0 mm | 0.45 m/s, 103° | 0 W/m² | - |
| 1836274096 | 15° C | 91% | - | 0 mm | 0.45 m/s, 133° | 0 W/m² | - |
| 1778063725 | 10° C | 65% | - | 0 mm | 0.89 m/s, 30° | 388 W/m² | - |
| 1778063125 | 10° C | 66% | - | 0 mm | 0.89 m/s, 346° | 308 W/m² | - |
| 1778062525 | 9.44° C | 66% | - | 0 mm | 0.89 m/s, 346° | 301 W/m² | - |
| 1778061937 | 9.44° C | 66% | - | 0 mm | 0.89 m/s, 312° | 352 W/m² | - |
| 1778061325 | 9.44° C | 68% | - | 0 mm | 0.89 m/s, 322° | 314 W/m² | - |
| 1778060725 | 8.89° C | 69% | - | 0 mm | 1.34 m/s, 146° | 273 W/m² | - |
| 1778060125 | 8.89° C | 72% | - | 0 mm | 0.89 m/s, 3° | 239 W/m² | - |
| 1778059525 | 8.89° C | 72% | - | 0 mm | 1.34 m/s, 342° | 230 W/m² | - |
| 1778058925 | 8.89° C | 72% | - | 0 mm | 0.89 m/s, 331° | 249 W/m² | - |
| 1778058325 | 8.33° C | 73% | - | 0 mm | 0.89 m/s, 332° | 237 W/m² | - |
| 1778057725 | 8.33° C | 75% | - | 0 mm | 0.89 m/s, 326° | 204 W/m² | - |
| 1778057126 | 8.33° C | 76% | - | 0 mm | 0.89 m/s, 322° | 200 W/m² | - |
| 1778056525 | 7.78° C | 77% | - | 0 mm | 0.89 m/s, 270° | 175 W/m² | - |
| 1778055926 | 7.78° C | 78% | - | 0 mm | 0.89 m/s, 326° | 136 W/m² | - |
| 1778055326 | 7.78° C | 78% | - | 0 mm | 0.89 m/s, 84° | 132 W/m² | - |
| 1778054725 | 7.78° C | 79% | - | 0 mm | 1.34 m/s, 325° | 135 W/m² | - |
| 1778054125 | 7.78° C | 79% | - | 0 mm | 0.89 m/s, 338° | 107 W/m² | - |
| 1778053526 | 7.78° C | 79% | - | 0 mm | 0.89 m/s, 329° | 111 W/m² | - |
| 1778052925 | 7.78° C | 79% | - | 0 mm | 0.89 m/s, 325° | 112 W/m² | - |
| 1778052326 | 7.78° C | 79% | - | 0 mm | 0.45 m/s, 144° | 107 W/m² | - |
| 1778051726 | 7.78° C | 79% | - | 0 mm | 0.89 m/s, 89° | 102 W/m² | - |
| 1778051126 | 7.78° C | 79% | - | 0 mm | 0.89 m/s, 335° | 94 W/m² | - |
* Rain latest hour (hover to see other rain measurements)
** Current wind speed in m/s (hover to see current wind gust speed)